Weather History for Perry, IA

Change the Weather History Date:

Sunday, October 16, 2011

  Actual Average Record
Temperature  
Mean Temperature 52 °F -  
Max Temperature 62 °F 62 °F 85 °F (1968)
Min Temperature 41 °F 37 °F 25 °F (1976)
Degree Days  
Heating Degree Days 13    
Growing Degree Days 2 (Base 50)    
Moisture  
Dew Point 34 °F    
Average Humidity 53    
Maximum Humidity 76    
Minimum Humidity 23    
Precipitation  
Precipitation 0.00 in - - ()
Sea Level Pressure  
Sea Level Pressure 29.93 in    
Wind  
Wind Speed 7 mph (NW)    
Max Wind Speed 17 mph    
Max Gust Speed 23 mph    
Visibility 10 miles    
Events Rain    
Averages and records for this station are not official NWS values.
T = Trace of Precipitation, MM = Missing Value Source: NWS Daily Summary

Daily Weather History Graph

Daily Weather History Graph

Search for Another Location

Airport:

Trip Planner

Search our weather history database for the weather conditions in past years. The results will help you decide how hot, cold, wet, or windy it might be!

Date:

Astronomy

Oct. 16, 2011 Rise Set
Actual Time 7:29 AM CDT 6:33 PM CDT
Civil Twilight 7:01 AM CDT 7:02 PM CDT
Nautical Twilight 6:29 AM CDT 7:34 PM CDT
Astronomical Twilight 5:57 AM CDT 8:06 PM CDT
Moon 9:16 PM CDT (10/16) 11:51 AM CDT (10/16)
Length of Visible Light 12h 00m
Length of Day
11h 04m
Waning Gibbous, 82% of the Moon is Illuminated
Oct 16
Waning Gibbous
Oct 19
Last Quarter
Oct 26
New
Nov 2
First Quarter
Nov 10
Full

Hourly Weather History & Observations

Time (CDT) Temp. Windchill Dew Point Humidity Pressure Visibility Wind Dir Wind Speed Gust Speed Precip Events Conditions
12:35 AM 50.0 °F - 37.4 °F 62% 29.74 in 10.0 mi East 4.6 mph - N/A   Clear
12:55 AM 50.0 °F - 37.4 °F 62% 29.75 in 10.0 mi East 3.5 mph - N/A   Clear
1:15 AM 48.2 °F - 37.4 °F 66% 29.75 in 10.0 mi NNE 4.6 mph - N/A   Clear
1:55 AM 50.0 °F - 37.4 °F 62% 29.79 in 10.0 mi North 4.6 mph - N/A   Scattered Clouds
2:15 AM 50.0 °F - 37.4 °F 62% 29.77 in 10.0 mi Calm Calm - N/A   Scattered Clouds
2:35 AM 50.0 °F - 41.0 °F 71% 29.77 in 10.0 mi SSE 3.5 mph - N/A Rain Light Rain
2:55 AM 50.0 °F - 42.8 °F 76% 29.77 in 10.0 mi Calm Calm - N/A   Mostly Cloudy
3:15 AM 50.0 °F - 41.0 °F 71% 29.77 in 10.0 mi NNW 3.5 mph - N/A   Scattered Clouds
3:55 AM 48.2 °F - 39.2 °F 71% 29.80 in 10.0 mi NNW 9.2 mph - N/A   Clear
4:15 AM 50.0 °F - 39.2 °F 66% 29.81 in 10.0 mi North 8.1 mph - N/A   Clear
4:35 AM 50.0 °F - 37.4 °F 62% 29.81 in 10.0 mi NNE 6.9 mph - N/A   Clear
4:55 AM 48.2 °F - 37.4 °F 66% 29.81 in 10.0 mi North 5.8 mph - N/A   Clear
5:15 AM 46.4 °F 42.4 °F 39.2 °F 76% 29.82 in 10.0 mi NNW 8.1 mph - N/A   Clear
5:35 AM 48.2 °F - 41.0 °F 76% 29.87 in 10.0 mi NNW 12.7 mph - N/A   Clear
5:55 AM 48.2 °F - 41.0 °F 76% 29.88 in 10.0 mi NNW 15.0 mph - N/A   Clear
6:15 AM 48.2 °F - 41.0 °F 76% 29.90 in 10.0 mi NNW 10.4 mph - N/A   Clear
6:35 AM 48.2 °F - 41.0 °F 76% 29.90 in 10.0 mi NNW 9.2 mph - N/A   Clear
6:55 AM 48.2 °F - 41.0 °F 76% 29.91 in 10.0 mi NNW 6.9 mph - N/A   Clear
7:15 AM 48.2 °F - 41.0 °F 76% 29.92 in 10.0 mi NW 5.8 mph - N/A   Clear
7:35 AM 48.2 °F - 41.0 °F 76% 29.93 in 10.0 mi NNW 5.8 mph - N/A   Clear
8:15 AM 48.2 °F - 41.0 °F 76% 29.95 in 10.0 mi NW 6.9 mph - N/A   Clear
8:35 AM 48.2 °F - 41.0 °F 76% 29.95 in 10.0 mi NW 5.8 mph - N/A   Clear
8:55 AM 48.2 °F - 41.0 °F 76% 29.97 in 10.0 mi WNW 5.8 mph - N/A   Clear
9:15 AM 50.0 °F - 41.0 °F 71% 29.98 in 10.0 mi WNW 5.8 mph - N/A   Clear
9:35 AM 51.8 °F - 41.0 °F 67% 29.99 in 10.0 mi NW 10.4 mph 16.1 mph N/A   Clear
9:55 AM 51.8 °F - 39.2 °F 62% 29.99 in 10.0 mi NNW 13.8 mph 18.4 mph N/A   Clear
10:15 AM 51.8 °F - 37.4 °F 58% 30.00 in 10.0 mi NW 13.8 mph 20.7 mph N/A   Clear
10:35 AM 53.6 °F - 37.4 °F 54% 30.00 in 10.0 mi NW 11.5 mph 19.6 mph N/A   Clear
10:55 AM 55.4 °F - 37.4 °F 51% 30.01 in 10.0 mi NW 11.5 mph - N/A   Clear
11:15 AM 55.4 °F - 37.4 °F 51% 30.01 in 10.0 mi NNW 12.7 mph 18.4 mph N/A   Clear
11:35 AM 55.4 °F - 37.4 °F 51% 30.01 in 10.0 mi NW 6.9 mph - N/A   Clear
11:55 AM 55.4 °F - 37.4 °F 51% 30.01 in 10.0 mi WNW 8.1 mph - N/A   Clear
12:15 PM 59.0 °F - 33.8 °F 39% 30.01 in 10.0 mi NW 9.2 mph - N/A   Clear
12:35 PM 59.0 °F - 32.0 °F 36% 30.00 in 10.0 mi WNW 10.4 mph - N/A   Clear
12:55 PM 60.8 °F - 28.4 °F 29% 30.00 in 10.0 mi NW 13.8 mph 23.0 mph N/A   Clear
1:15 PM 60.8 °F - 30.2 °F 31% 30.00 in 10.0 mi NW 9.2 mph 20.7 mph N/A   Clear
2:15 PM 62.6 °F - 32.0 °F 32% 29.99 in 10.0 mi WNW 10.4 mph 16.1 mph N/A   Clear
2:35 PM 62.6 °F - 30.2 °F 30% 29.98 in 10.0 mi WNW 10.4 mph 20.7 mph N/A   Clear
2:55 PM 62.6 °F - 30.2 °F 30% 29.98 in 10.0 mi NW 16.1 mph 23.0 mph N/A   Clear
3:15 PM 62.6 °F - 30.2 °F 30% 29.97 in 10.0 mi WNW 9.2 mph 20.7 mph N/A   Clear
3:35 PM 62.6 °F - 28.4 °F 27% 29.97 in 10.0 mi NW 15.0 mph 20.7 mph N/A   Clear
3:55 PM 62.6 °F - 28.4 °F 27% 29.97 in 10.0 mi NW 16.1 mph 21.9 mph N/A   Clear
4:15 PM 62.6 °F - 28.4 °F 27% 29.97 in 10.0 mi WNW 8.1 mph 21.9 mph N/A   Clear
4:35 PM 62.6 °F - 26.6 °F 26% 29.97 in 10.0 mi NW 17.3 mph 20.7 mph N/A   Clear
4:55 PM 62.6 °F - 24.8 °F 24% 29.97 in 10.0 mi WNW 11.5 mph 19.6 mph N/A   Clear
5:15 PM 60.8 °F - 23.0 °F 23% 29.97 in 10.0 mi WNW 9.2 mph - N/A   Clear
5:35 PM 60.8 °F - 24.8 °F 25% 29.97 in 10.0 mi WNW 11.5 mph - N/A   Clear
5:55 PM 59.0 °F - 24.8 °F 27% 29.97 in 10.0 mi WNW 11.5 mph - N/A   Clear
6:15 PM 57.2 °F - 26.6 °F 31% 29.97 in 10.0 mi WNW 8.1 mph - N/A   Clear
6:35 PM 55.4 °F - 26.6 °F 33% 29.97 in 10.0 mi WNW 4.6 mph - N/A   Clear
6:55 PM 53.6 °F - 26.6 °F 35% 29.98 in 10.0 mi West 5.8 mph - N/A   Clear
7:15 PM 51.8 °F - 28.4 °F 41% 29.99 in 10.0 mi West 6.9 mph - N/A   Clear
7:35 PM 51.8 °F - 26.6 °F 38% 29.99 in 10.0 mi WNW 6.9 mph - N/A   Clear
7:55 PM 50.0 °F - 28.4 °F 43% 30.00 in 10.0 mi West 5.8 mph - N/A   Clear
8:15 PM 46.4 °F 43.5 °F 28.4 °F 50% 30.00 in 10.0 mi West 5.8 mph - N/A   Clear
8:35 PM 44.6 °F 40.2 °F 30.2 °F 57% 30.00 in 10.0 mi West 8.1 mph - N/A   Clear
8:55 PM 44.6 °F 40.2 °F 30.2 °F 57% 30.00 in 10.0 mi West 8.1 mph - N/A   Clear
9:15 PM 42.8 °F 38.0 °F 30.2 °F 61% 30.00 in 10.0 mi West 8.1 mph - N/A   Clear
9:35 PM 41.0 °F 35.8 °F 30.2 °F 65% 30.00 in 10.0 mi West 8.1 mph - N/A   Clear
9:55 PM 41.0 °F 35.8 °F 30.2 °F 65% 30.01 in 10.0 mi West 8.1 mph - N/A   Clear
10:15 PM 41.0 °F 36.4 °F 30.2 °F 65% 30.01 in 10.0 mi West 6.9 mph - N/A   Clear
10:35 PM 41.0 °F 35.8 °F 30.2 °F 65% 30.02 in 10.0 mi West 8.1 mph - N/A   Clear
10:55 PM 37.4 °F 32.1 °F 30.2 °F 75% 30.02 in 10.0 mi WSW 6.9 mph - N/A   Clear
11:15 PM 39.2 °F 33.6 °F 30.2 °F 70% 30.02 in 10.0 mi West 8.1 mph - N/A   Clear
11:35 PM 41.0 °F 35.8 °F 30.2 °F 65% 30.01 in 10.0 mi West 8.1 mph - N/A   Clear
11:55 PM 37.4 °F 31.4 °F 30.2 °F 75% 30.01 in 10.0 mi West 8.1 mph - N/A   Clear